Flag for Dominican Republic Weather past 2 weeks in Santiago de los Caballeros, Dominican Republic

Now
77 °F

Scattered clouds.


Feels Like: 79 °F
Forecast: 69 / 73 °F
Wind: 5 mph from Southwest

Location: Santiago

Current Time: Jan 29, 2015 at 3:36:01 PM

Latest Report: Jan 29, 2015 at 3:00 PM


Visibility: N/A

Pressure: 30.01 "Hg

Humidity: 69%

Dew point: 66 °F

Location of Santiago de los CaballerosLocation

Historic Weather in Santiago de los Caballeros — Graph

°F

Santiago de los Caballeros temperature yesterday

Maximum temperature yesterday: 79 °F (at 2:00 PM)
Minimum temperature yesterday: 70 °F (at 6:00 AM)
Average temperature yesterday: 73 °F

Past Weeks' High & Low Weather Summary

 TemperatureHumidityPressure
High86 °F (Jan 14, 3:00 PM)100% (Jan 15, 7:00 AM)30.09 "Hg (Jan 15, 7:00 AM)
Low61 °F (Jan 21, 6:00 AM)49% (Jan 27, 4:00 PM)29.86 "Hg (Jan 28, 6:00 AM)
Average75 °F83%29.99 "Hg
* Reported Jan 14 2:00 PM — Jan 29 2:00 PM, Santiago de los Caballeros, Weather by CustomWeather, © 2014

Note: Actual official high and low records may vary slightly from our data, if they occured in-between our weather recording intervals... More about our weather records

Advertising

Santiago de los Caballeros weather history for previous 24 hours

 ConditionsComfort  
Time TempWeatherWind HumidityBarometerVisibility
2:00 PM
Jan 29
75 °FPartly sunny.5 mph74%30.04 "HgN/A
1:00 PM72 °FRain. Partly sunny.6 mph88%30.07 "Hg5 mi
12:00 PM72 °FPartly sunny.5 mph83%30.09 "HgN/A
11:00 AM72 °FPartly sunny.6 mph83%30.09 "HgN/A
10:00 AM72 °FPartly sunny.No wind83%30.09 "HgN/A
9:00 AM68 °FPartly sunny.5 mph94%30.07 "HgN/A
8:00 AM66 °FPartly sunny.8 mph94%30.04 "HgN/A
7:00 AM66 °FPassing clouds.7 mph100%30.01 "HgN/A
6:00 AM68 °FLight rain. Passing clouds.9 mph94%30.01 "Hg4 mi
5:00 AM68 °FRain. Passing clouds.9 mph100%30.01 "Hg5 mi
4:00 AM68 °FPartly cloudy.8 mph100%29.98 "HgN/A
3:00 AM68 °FLight rain. Partly cloudy.7 mph100%30.01 "Hg4 mi
2:00 AM68 °FPartly cloudy.8 mph100%30.01 "HgN/A
1:00 AM68 °FPartly cloudy.10 mph100%30.01 "HgN/A
12:00 AM70 °FPartly cloudy.8 mph94%30.01 "HgN/A
11:00 PM
Jan 28
70 °FPartly cloudy.7 mph94%30.04 "HgN/A
10:00 PM70 °FPassing clouds.6 mph94%30.04 "HgN/A
9:00 PM70 °FRain. Mostly cloudy.7 mph100%30.01 "Hg5 mi
8:00 PM70 °FLight rain. Mostly cloudy.12 mph100%29.98 "Hg4 mi
7:00 PM70 °FLight rain. Partly cloudy.14 mph94%29.98 "Hg4 mi
6:00 PM75 °FRain. Partly sunny.12 mph83%29.95 "Hg4 mi
5:00 PM77 °FBroken clouds.12 mph79%29.95 "HgN/A
4:00 PM77 °FSprinkles. Broken clouds.3 mph79%29.95 "Hg4 mi
3:00 PM79 °FScattered showers. Broken clouds.3 mph74%29.95 "Hg4 mi
Weather by CustomWeather, © 2014

See weather overviewHow to use our weather pages